Temperature
11 11 10 11 11 11 11 10 11 11 11 11 11 11 11 11 11 11 11 11 11 11 11 10 10 10 10 10 10 10 10 10 10 10 10 10 10 10 10 10 9 9 9
10 10 10 10 10 10 10 10 10 10 10 10 10 10 10 10 10 10 10 10 10 10 10 10 10 10 10 10 10 10 10 9 9 9 9 9 9 9 9 9 9 9 9
10 10 10 10 10 10 10 10 10 10 10 10 10 10 10 10 10 10 10 10 10 10 10 10 10 10 10 10 9 9 9 9 9 9 9 9 9 9 9 9 9 8 8
9 9 9 9 9 9 9 9 9 9 9 9 9 9 9 9 10 10 10 10 10 10 10 10 10 9 9 9 9 9 9 9 9 9 9 9 9 9 9 8 8 8 8
9 9 9 9 9 9 9 9 9 9 9 9 9 9 9 9 9 9 9 9 9 9 9 9 9 9 9 9 9 9 9 9 9 8 8 8 8 8 8 8 8 8 8
8 8 8 8 8 8 8 8 8 8 8 8 8 8 8 8 8 9 9 9 9 9 9 9 9 9 9 9 9 9 9 8 8 8 8 8 8 8 8 8 8 8 8
7 8 8 8 8 8 8 8 8 8 8 8 8 8 8 8 8 8 8 8 8 8 8 8 9 9 9 9 9 8 8 8 8 8 8 8 8 8 8 8 7 7 7
7 7 7 7 7 8 7 7 7 7 7 7 7 7 7 7 7 7 7 7 8 8 8 8 8 8 8 8 8 8 8 8 8 8 8 8 8 7 7 7 7 7 7
6 7 7 7 7 7 7 7 7 7 7 7 7 7 7 6 6 6 7 7 7 7 8 8 8 8 8 8 8 8 8 8 7 8 8 7 7 7 7 7 7 7 7
6 6 6 6 7 7 7 7 7 7 7 7 7 7 7 7 6 6 6 6 6 7 7 7 7 7 7 7 7 7 7 7 7 7 7 7 7 7 7 7 7 7 7
5 5 6 6 6 6 6 6 6 6 6 7 6 6 6 6 6 6 5 6 6 6 6 7 7 7 7 7 7 7 7 7 7 7 7 7 7 7 7 7 7 6 6
4 5 5 5 5 5 6 6 6 6 6 6 6 6 6 6 6 6 6 5 5 6 6 6 6 6 6 6 6 6 6 6 6 6 6 6 6 6 6 6 6 6 6
4 4 5 5 5 5 5 5 5 5 5 5 5 5 5 5 6 6 5 5 5 5 5 5 6 6 6 6 6 6 6 6 6 6 6 6 6 6 6 6 6 6 6
4 4 4 4 4 4 5 5 5 5 5 5 5 5 5 5 5 5 5 5 4 4 5 5 5 5 5 5 5 5 5 5 6 6 6 6 6 6 6 6 6 6 6
3 3 4 4 4 4 4 4 4 4 4 4 4 4 4 4 4 4 5 5 4 4 4 4 5 5 5 5 5 5 5 5 5 5 5 5 5 5 5 5 5 5 5
2 2 3 3 3 3 3 3 4 4 4 4 4 4 4 4 4 4 4 4 4 4 4 4 4 4 4 4 4 4 4 4 4 4 4 4 4 4 5 5 5 5 5
2 2 2 2 3 3 3 3 3 3 3 3 3 3 3 3 3 3 3 3 3 3 3 3 4 4 4 4 4 4 4 4 4 4 4 4 4 4 4 4 4 4 4
1 1 2 2 2 2 2 2 2 3 3 3 3 3 3 3 3 3 3 3 3 3 3 3 3 3 3 3 3 3 3 3 3 4 4 4 4 4 3 3 3 3 3
1 1 1 1 1 2 2 2 2 2 2 2 2 2 2 2 2 2 2 2 2 2 2 2 2 2 3 3 3 3 3 3 3 3 3 3 3 3 3 3 3 3 3
0 0 0 1 1 1 1 1 1 1 1 1 1 1 2 1 2 2 2 2 2 2 2 1 2 2 2 2 2 2 2 2 2 2 2 2 2 2 2 2 2 2 2
-1 -0 -0 0 0 0 1 1 1 1 1 1 1 1 1 1 1 1 1 1 1 1 1 1 1 1 1 1 1 1 1 2 2 2 2 2 2 2 2 2 2 2 2
-1 -1 -1 -0 -0 -0 0 0 -0 0 0 0 0 0 1 1 1 0 1 0 0 0 0 0 1 1 1 1 1 1 1 1 1 1 1 1 1 1 1 1 1 1 1
-2 -1 -1 -1 -1 -0 -0 -0 -1 -1 -0 -0 -0 -0 -0 0 -0 -0 -0 -0 -0 -0 -0 -0 -0 0 0 0 0 0 -0 0 0 0 0 0 1 1 1 1 1 1 1
-2 -2 -2 -1 -1 -1 -1 -1 -1 -1 -1 -1 -1 -1 -1 -0 -0 -1 -1 -1 -1 -1 -1 -1 -1 -0 -0 -0 -0 -0 -0 -1 -0 -0 -0 -0 -0 0 0 0 0 0 0
-2 -2 -2 -2 -2 -2 -1 -1 -2 -2 -1 -1 -1 -1 -1 -1 -1 -1 -1 -1 -1 -1 -1 -1 -1 -1 -1 -1 -1 -1 -1 -1 -1 -1 -1 -1 -1 -0 -0 -0 -0 -0 -0
-3 -3 -2 -2 -2 -2 -2 -2 -2 -2 -2 -2 -2 -2 -2 -1 -1 -2 -2 -2 -2 -1 -2 -2 -2 -1 -1 -1 -2 -2 -2 -2 -2 -2 -2 -1 -1 -1 -1 -1 -1 -1 -1
Wind_Speed
4 4 4 5 5 5 5 5 5 6 6 7 7 7 6 7 8 7 7 8 8 8 8 8 8 9 9 8 9 8 8 8 8 8 9 9 9 8 8 8 9 9 8
4 4 3 4 4 4 5 5 5 5 5 5 5 6 6 7 7 7 6 7 7 7 7 7 7 7 7 7 8 7 7 7 7 7 7 7 7 7 7 7 7 7 7
4 4 3 3 3 4 5 5 5 6 5 4 4 4 5 6 6 6 6 6 6 6 6 6 6 6 6 6 7 7 6 6 6 5 5 5 5 5 5 5 5 5 5
4 4 3 2 3 4 5 4 3 3 4 3 3 2 3 4 5 5 5 5 5 5 5 6 6 5 5 5 5 5 5 5 5 4 4 4 3 3 3 3 3 3 4
4 4 3 2 4 4 3 3 3 3 4 4 3 2 2 2 3 4 4 5 5 5 5 5 5 5 5 4 4 4 4 4 4 4 3 2 2 2 2 2 1 2 2
4 4 3 3 4 3 3 3 3 3 4 4 3 3 2 1 2 3 4 5 5 5 5 6 5 4 4 4 3 3 3 3 3 3 2 1 1 1 1 1 1 1 1
4 4 3 3 3 3 4 4 3 4 3 3 3 2 2 2 2 2 3 4 4 4 5 5 5 4 3 3 3 2 2 1 2 2 2 2 1 1 1 1 1 1 1
3 4 3 3 2 3 3 4 4 3 2 3 3 3 1 1 1 1 1 1 2 3 3 3 4 4 3 2 2 2 1 1 1 2 2 2 2 3 2 2 2 2 2
2 3 4 4 3 3 4 4 4 3 4 2 2 3 2 2 1 1 0 1 1 1 1 2 2 2 2 2 3 3 2 1 2 2 2 2 2 3 4 3 3 3 3
1 2 3 4 3 3 4 4 3 3 4 3 1 0 1 2 2 1 1 1 0 0 0 1 2 2 2 2 3 3 3 3 3 3 3 3 3 3 3 3 3 2 3
2 1 2 3 3 2 3 4 4 4 3 3 2 1 1 1 1 2 2 1 1 1 1 1 2 2 3 3 3 3 4 4 3 4 3 3 3 3 3 3 3 3 3
0 1 1 2 2 2 3 4 4 4 3 2 2 1 2 2 2 1 2 2 2 2 2 1 1 2 3 3 4 3 4 5 4 4 4 4 3 3 3 3 3 3 3
1 1 0 1 2 2 3 3 4 4 4 4 3 2 1 1 1 1 2 2 2 2 1 1 1 3 4 4 4 4 4 5 6 5 5 4 3 3 3 3 4 3 3
2 1 1 1 1 2 2 3 3 3 3 4 3 3 1 1 1 1 2 2 1 2 2 3 2 2 3 4 5 5 4 5 6 6 5 4 3 3 3 3 3 3 3
1 1 1 1 1 1 2 2 3 3 3 3 3 3 2 1 1 1 2 3 3 3 5 3 2 2 3 4 5 5 4 5 5 5 5 5 4 4 3 3 3 3 3
1 1 1 1 2 2 1 3 3 3 3 3 3 3 2 1 1 1 1 1 2 3 4 3 3 2 2 3 5 5 5 6 6 5 6 6 5 5 5 4 3 3 4
2 2 2 2 3 3 2 4 4 4 4 3 3 3 3 2 2 2 1 1 1 1 3 3 2 2 1 2 2 4 5 4 5 6 6 7 6 6 5 5 5 4 4
2 2 2 2 3 3 3 4 5 4 5 5 4 4 4 3 3 2 2 2 2 2 2 4 3 2 2 2 2 2 2 4 4 6 7 7 7 7 7 6 6 5 5
2 2 2 2 2 3 3 4 5 5 5 5 5 5 5 5 4 3 3 3 2 2 2 3 3 2 2 2 2 2 2 2 3 4 6 6 7 7 7 7 6 6 6
2 2 3 3 2 3 3 3 4 4 5 4 5 5 5 6 6 5 4 4 3 2 2 2 3 2 2 2 2 2 3 2 2 3 4 5 6 7 8 7 6 6 5
3 3 3 2 2 2 3 3 4 4 5 4 4 5 5 6 7 6 5 4 4 3 3 3 3 3 3 2 3 3 3 3 3 2 3 3 3 4 5 6 7 6 6
2 2 2 2 2 3 3 4 4 4 4 5 5 4 4 5 6 7 6 6 5 5 5 4 4 5 5 4 3 3 3 2 3 2 2 3 2 3 4 5 6 6 6
2 2 2 2 3 3 3 4 4 3 4 4 5 5 4 4 5 4 5 5 5 7 7 6 5 6 6 5 4 4 4 4 4 3 2 4 2 3 4 5 6 6 7
2 2 3 3 3 3 3 4 4 3 3 4 5 5 6 5 5 5 4 4 4 4 5 5 5 6 5 5 6 6 5 4 3 3 2 4 3 4 5 5 5 5 6
2 2 3 3 2 3 4 4 4 3 3 4 4 4 5 5 7 7 5 5 4 4 5 6 6 6 6 6 5 3 3 3 4 3 2 2 2 3 3 4 5 5 6
2 2 2 2 2 3 5 5 4 3 3 3 3 4 6 6 7 7 5 5 6 5 3 2 2 3 3 4 4 4 4 4 3 3 2 2 2 1 2 3 3 4 4
Wind_Direction
108 101 108 108 105 109 115 116 113 105 102 101 101 102 99 105 109 109 114 113 111 117 125 124 121 124 124 120 115 111 107 105 102 99 93 89 86 84 80 78 77 73 75
115 115 108 105 105 111 119 124 122 110 105 107 103 105 108 111 112 110 114 119 118 118 119 124 127 125 128 129 123 118 115 113 109 106 100 93 87 84 82 80 79 75 75
125 125 114 112 119 123 114 115 110 108 107 105 105 105 111 115 119 116 116 120 125 126 129 125 130 130 128 130 134 131 127 123 119 116 112 106 97 90 89 87 87 78 77
131 130 122 124 137 131 120 126 128 117 117 115 113 105 106 110 116 121 121 122 126 133 135 132 127 130 129 128 134 140 139 132 129 128 123 115 111 102 97 90 91 87 83
131 131 125 129 141 127 117 131 131 134 130 123 121 115 105 105 112 119 119 125 127 124 123 127 131 128 127 126 125 136 142 142 135 127 123 122 121 110 97 103 103 102 87
137 133 126 127 131 128 135 132 139 137 138 136 123 101 78 89 115 122 130 125 118 114 112 109 112 119 123 130 126 122 143 144 148 141 140 140 149 141 127 106 121 120 94
138 134 130 135 130 145 149 135 138 141 133 128 112 85 43 35 68 91 112 112 108 112 113 113 113 111 118 139 138 135 130 142 175 183 195 213 211 204 202 213 253 230 234
138 145 138 149 138 141 134 133 130 141 151 133 131 127 118 27 3 9 65 108 111 117 117 124 126 127 124 137 156 149 161 183 221 216 221 231 230 228 234 234 252 247 252
131 140 152 148 146 150 162 164 154 134 161 165 142 141 152 190 206 311 335 108 92 68 103 133 144 149 153 166 183 186 195 217 244 247 242 246 247 246 245 250 256 254 254
91 136 151 151 156 163 172 176 158 150 155 169 182 79 146 154 164 200 302 335 9 236 242 156 180 188 180 185 207 203 204 218 248 261 267 257 256 261 261 265 275 279 265
45 111 150 153 164 178 179 175 166 159 162 166 172 162 115 107 116 164 209 244 302 277 263 196 183 196 208 210 218 224 216 219 244 259 263 264 263 275 279 275 274 289 299
110 23 143 158 172 184 193 184 176 170 173 169 174 172 169 179 189 178 193 210 234 260 271 237 197 203 216 214 225 245 237 226 239 252 254 261 266 276 286 292 294 297 306
207 238 202 172 188 201 204 189 174 177 178 180 185 195 203 213 191 194 182 207 242 262 264 270 259 222 216 214 226 249 256 247 239 248 254 259 264 270 286 295 301 307 309
223 262 233 180 204 202 204 188 178 184 180 184 192 187 193 223 192 184 193 189 225 265 260 258 283 238 219 220 234 242 251 266 255 244 248 252 250 256 269 287 300 301 312
261 301 293 203 224 206 207 189 181 186 183 192 196 193 196 217 211 225 206 193 195 230 245 238 248 265 239 230 235 230 235 256 265 257 238 237 243 251 258 266 278 287 294
259 234 261 221 228 217 214 188 188 187 184 197 197 192 199 215 209 213 218 230 223 223 245 240 243 263 238 247 245 231 231 249 254 255 248 238 240 247 252 251 253 268 280
252 229 241 224 209 202 212 195 195 190 188 197 203 200 209 210 209 216 223 222 234 229 249 272 279 284 267 257 255 239 235 234 246 249 253 245 241 240 241 243 246 255 267
255 248 248 244 225 210 216 201 199 201 197 201 205 205 214 210 204 214 219 228 236 236 235 255 275 281 277 262 251 241 238 242 247 254 254 251 241 242 242 242 247 247 253
255 249 239 239 229 219 221 211 202 206 208 210 209 211 215 207 214 217 218 224 235 250 243 240 260 277 282 282 275 283 284 277 262 263 260 259 245 239 241 248 252 251 252
253 247 246 237 234 232 233 222 211 210 212 216 218 217 215 212 216 214 218 220 222 231 236 231 245 257 269 266 247 263 279 278 286 294 282 269 250 241 244 248 248 243 245
260 256 259 250 256 240 233 222 220 219 216 219 223 222 219 222 227 224 225 218 214 226 231 241 245 254 259 250 241 247 259 271 279 295 289 281 273 256 253 252 245 242 249
256 255 252 243 254 258 258 258 247 225 221 219 224 228 226 221 227 230 234 230 226 224 225 237 247 242 246 248 251 248 249 261 268 268 258 274 281 280 279 265 254 251 254
271 270 257 241 254 261 260 259 260 239 221 222 224 227 237 232 228 218 228 233 239 240 233 228 238 245 240 237 235 245 245 242 251 255 259 260 266 268 285 274 265 266 265
260 261 269 259 256 266 268 261 267 241 222 225 226 224 226 225 224 217 214 226 234 240 236 230 231 241 245 236 230 235 241 253 269 266 243 249 255 260 280 274 271 271 273
260 259 264 255 250 272 275 273 272 236 236 237 235 226 222 224 230 224 216 218 231 249 249 238 238 241 246 243 232 233 232 244 264 258 238 227 249 272 271 270 271 270 270
257 277 289 280 264 269 271 270 270 242 244 249 248 237 234 232 232 226 215 213 224 238 234 240 257 263 252 241 240 230 227 237 254 254 226 205 226 258 273 259 271 279 275
Height
1537 1539 1541 1542 1543 1545 1546 1548 1549 1551 1552 1554 1555 1556 1557 1558 1559 1560 1561 1562 1562 1563 1563 1563 1563 1563 1563 1563 1564 1564 1564 1564 1564 1564 1564 1564 1564 1564 1564 1563 1563 1562 1562
1535 1537 1538 1540 1542 1544 1545 1547 1548 1549 1551 1552 1554 1555 1556 1557 1558 1559 1560 1561 1562 1562 1562 1563 1563 1563 1563 1564 1564 1564 1564 1564 1565 1565 1564 1564 1564 1564 1564 1563 1563 1563 1562
1533 1535 1536 1538 1540 1542 1544 1545 1547 1548 1549 1551 1553 1554 1555 1556 1557 1558 1559 1560 1560 1561 1562 1562 1562 1563 1563 1563 1563 1564 1564 1564 1564 1564 1564 1564 1564 1564 1564 1563 1563 1563 1562
1531 1533 1534 1536 1538 1540 1542 1544 1545 1546 1547 1549 1551 1552 1554 1555 1556 1557 1558 1559 1559 1560 1560 1561 1561 1562 1562 1562 1563 1563 1563 1563 1564 1564 1564 1563 1563 1563 1563 1563 1563 1562 1562
1529 1531 1532 1534 1536 1538 1540 1541 1543 1544 1546 1547 1549 1550 1552 1553 1554 1555 1556 1557 1558 1558 1559 1559 1560 1561 1561 1561 1562 1562 1562 1563 1563 1563 1563 1562 1562 1562 1562 1562 1562 1562 1561
1527 1528 1530 1532 1534 1535 1537 1539 1541 1543 1544 1545 1546 1548 1550 1551 1552 1553 1554 1555 1556 1556 1557 1558 1558 1559 1559 1560 1560 1561 1561 1561 1561 1561 1561 1561 1561 1561 1561 1561 1561 1561 1560
1524 1526 1528 1530 1532 1533 1534 1536 1539 1541 1542 1543 1544 1545 1547 1549 1550 1551 1552 1553 1553 1554 1555 1556 1556 1557 1558 1558 1559 1559 1559 1560 1560 1560 1560 1560 1560 1559 1559 1559 1559 1559 1559
1521 1523 1525 1527 1529 1531 1532 1534 1536 1537 1539 1540 1542 1543 1545 1547 1547 1549 1550 1551 1551 1552 1553 1553 1554 1555 1555 1556 1556 1557 1557 1558 1558 1558 1558 1558 1558 1558 1558 1557 1557 1557 1557
1518 1520 1522 1524 1526 1528 1530 1531 1533 1534 1536 1538 1540 1541 1542 1542 1544 1546 1546 1548 1549 1550 1550 1551 1552 1552 1553 1554 1554 1554 1555 1555 1555 1556 1556 1556 1555 1556 1555 1555 1555 1555 1554
1516 1518 1520 1522 1524 1526 1528 1529 1531 1532 1533 1535 1537 1538 1540 1540 1541 1542 1544 1544 1545 1546 1547 1548 1549 1549 1550 1551 1551 1552 1552 1552 1553 1553 1553 1553 1553 1553 1553 1552 1552 1552 1552
1512 1514 1517 1519 1521 1523 1524 1526 1528 1529 1531 1532 1533 1535 1537 1538 1538 1539 1539 1541 1542 1543 1544 1545 1546 1546 1547 1547 1548 1548 1549 1549 1550 1550 1550 1550 1550 1550 1550 1549 1549 1548 1548
1509 1511 1513 1515 1517 1519 1521 1523 1525 1527 1528 1530 1531 1532 1533 1534 1535 1536 1536 1537 1538 1539 1540 1541 1542 1543 1544 1544 1545 1545 1546 1546 1546 1546 1546 1546 1546 1546 1546 1546 1546 1545 1545
1505 1507 1509 1511 1513 1516 1518 1520 1522 1523 1525 1526 1528 1529 1531 1532 1533 1533 1534 1534 1535 1535 1536 1537 1538 1539 1540 1541 1541 1542 1542 1542 1543 1543 1543 1543 1543 1543 1543 1543 1542 1542 1541
1502 1504 1505 1507 1510 1512 1514 1516 1518 1520 1522 1523 1525 1526 1527 1528 1530 1531 1531 1532 1532 1532 1532 1533 1534 1535 1536 1537 1537 1538 1538 1538 1539 1539 1539 1539 1539 1539 1539 1539 1539 1538 1538
1499 1500 1501 1504 1506 1508 1510 1512 1514 1516 1518 1519 1521 1522 1524 1525 1526 1527 1529 1529 1530 1528 1528 1529 1530 1531 1532 1533 1533 1533 1534 1534 1534 1534 1535 1535 1534 1534 1535 1535 1535 1534 1534
1495 1496 1498 1500 1502 1504 1506 1508 1510 1512 1514 1515 1517 1518 1520 1521 1522 1524 1525 1525 1526 1526 1525 1525 1526 1527 1528 1529 1529 1529 1529 1530 1530 1530 1530 1530 1530 1530 1530 1530 1530 1530 1530
1492 1493 1495 1496 1499 1500 1502 1504 1506 1508 1509 1511 1513 1514 1515 1517 1518 1519 1520 1521 1522 1522 1521 1521 1522 1523 1523 1524 1524 1525 1525 1525 1525 1525 1525 1526 1526 1526 1526 1526 1526 1526 1526
1488 1489 1491 1492 1494 1496 1498 1499 1501 1503 1505 1506 1508 1510 1511 1513 1514 1515 1516 1517 1518 1518 1518 1517 1517 1518 1519 1520 1520 1520 1520 1520 1520 1520 1521 1521 1521 1521 1521 1521 1521 1521 1521
1485 1486 1487 1488 1490 1492 1493 1495 1497 1498 1500 1502 1503 1505 1506 1508 1509 1510 1511 1512 1513 1514 1514 1514 1513 1514 1514 1515 1516 1516 1516 1516 1516 1516 1516 1516 1516 1516 1517 1517 1517 1517 1517
1481 1482 1483 1484 1486 1488 1489 1491 1492 1494 1496 1497 1499 1501 1502 1503 1504 1505 1506 1507 1508 1509 1510 1510 1509 1509 1510 1511 1511 1511 1510 1510 1510 1511 1511 1511 1511 1511 1512 1512 1512 1512 1512
1479 1479 1480 1481 1482 1484 1485 1487 1488 1490 1491 1492 1494 1496 1497 1498 1500 1501 1502 1503 1504 1505 1505 1505 1505 1505 1505 1505 1506 1506 1506 1505 1505 1506 1506 1506 1506 1506 1506 1506 1507 1506 1507
1475 1476 1476 1477 1479 1480 1481 1483 1484 1485 1486 1488 1489 1491 1492 1493 1495 1496 1497 1498 1500 1500 1501 1501 1501 1500 1500 1501 1501 1501 1501 1500 1500 1501 1501 1501 1501 1500 1501 1501 1501 1501 1501
1472 1473 1473 1475 1475 1476 1477 1479 1480 1481 1482 1483 1484 1485 1486 1488 1489 1491 1492 1493 1494 1496 1497 1497 1496 1496 1496 1496 1497 1496 1496 1496 1495 1495 1496 1495 1495 1495 1496 1496 1496 1496 1496
1469 1469 1470 1471 1472 1473 1474 1475 1476 1477 1478 1478 1479 1480 1482 1482 1484 1485 1486 1487 1489 1490 1491 1492 1492 1492 1492 1492 1492 1492 1491 1491 1491 1491 1491 1490 1490 1490 1490 1491 1491 1491 1491
1466 1467 1468 1468 1469 1469 1470 1471 1472 1473 1473 1474 1475 1476 1477 1478 1479 1481 1482 1483 1483 1484 1486 1486 1486 1487 1487 1487 1487 1487 1486 1486 1485 1485 1486 1486 1485 1484 1485 1485 1486 1486 1486
1463 1464 1464 1465 1465 1466 1467 1468 1468 1469 1469 1470 1471 1471 1473 1473 1475 1476 1477 1478 1478 1479 1480 1480 1481 1481 1481 1482 1482 1482 1482 1482 1481 1480 1480 1480 1480 1480 1479 1480 1480 1480 1481